User: anonymous   Login
Location: Boussy-Saint-Antoine
(48.6830°N, 2.5330°E)
Time: 08:27:09
(UTC+01:00)
Language:

ISS - Orbit

View from above orbital plane
View from above orbital plane
View from above satellite
View from above satellite

Ground track
Ground track

The orbit data is extracted from the following two-line orbital elements,

1 25544U 98067A   19079.51472761  .00016717  00000-0  10270-3 0  9028
2 25544  51.6378  82.0545 0003767 122.8396 237.3119 15.52807885  1477
Epoch (UTC): 20 March 2019 12:21:12
Eccentricity: 0.0003767
inclination: 51.6378°
perigee height: 406 km
apogee height: 411 km
right ascension of ascending node: 82.0545°
argument of perigee: 122.8396°
revolutions per day: 15.52807885
mean anomaly at epoch: 237.3119°
orbit number at epoch: 147

The dashed part of the orbit path shows where the satellite is in the earth's shadow,  

DLR